EW4405 Weather Reports


Display with metric or nautical units.
time (UTC)temp
F
wind
direction
speed
MPH
gust
MPH
rain 1hr
in
rain 24hr
in
rain mn
in
humidity
%
barometer
mb
20260504174249 80 185 4.0 14.0 0.00 0.00 0.00 57 1014.3
20260504174010 80 174 4.0 14.0 0.00 0.00 0.00 56 1014.3
20260504173451 80 184 4.0 11.0 0.00 0.00 0.00 57 1014.1
20260504172724 80 205 5.0 11.0 0.00 0.00 0.00 57 1014.4
20260504172219 80 194 4.0 11.0 0.00 0.00 0.00 57 1014.5
20260504171707 80 207 4.0 8.0 0.00 0.00 0.00 58 1014.7
20260504171201 80 195 5.0 9.0 0.00 0.00 0.00 58 1014.5
20260504170919 80 0 4.0 10.0 0.00 0.00 0.00 57 1014.8
20260504170145 80 226 4.0 10.0 0.00 0.00 0.00 57 1014.7
20260504170123 79 0 4.0 11.0 0.00 0.00 0.00 58 1014.9
20260504151013 74 181 3.0 8.0 0.00 0.00 0.00 67 1015.4
20260504150511 74 200 4.0 13.0 0.00 0.00 0.00 66 1015.4
20260504141000 69 0 0.0 3.0 0.00 0.00 0.00 71 1015.6
20260504140500 68 0 1.0 5.0 0.00 0.00 0.00 72 1015.5
20260504130443 61 0 0.0 1.0 0.00 0.00 0.00 80 1015.4
20260504110323 58 0 0.0 0.0 0.00 0.00 0.00 81 1015.2
20260504100311 58 0 0.0 0.0 0.00 0.00 0.00 80 1015.6
20260504081802 59 0 0.0 0.0 0.00 0.00 0.00 75 1015.9
20260504081301 59 0 0.0 0.0 0.00 0.00 0.00 75 1016.1
20260504080756 59 0 0.0 0.0 0.00 0.00 0.00 75 1016.2
20260504080256 60 0 0.0 0.0 0.00 0.00 0.00 75 1016.4
20260504050718 61 0 0.0 2.0 0.00 0.00 0.00 73 1018.1
20260504050216 61 0 0.0 2.0 0.00 0.00 0.00 73 1018.0
20260504045941 61 0 0.0 1.0 0.00 0.00 0.00 73 1018.0
20260504045218 62 0 0.0 0.0 0.00 0.00 0.00 71 1018.0
20260504044941 62 0 0.0 0.0 0.00 0.00 0.00 71 1018.0
20260504044218 62 0 0.0 0.0 0.00 0.00 0.00 70 1018.1
20260504043713 62 0 0.0 0.0 0.00 0.00 0.00 70 1018.1
20260504043212 63 0 0.0 0.0 0.00 0.00 0.00 70 1018.1
20260504042934 63 0 0.0 0.0 0.00 0.00 0.00 69 1018.2
20260504042211 63 0 0.0 0.0 0.00 0.00 0.00 69 1018.2
20260504041711 63 0 0.0 0.0 0.00 0.00 0.00 69 1018.2
20260504041213 64 0 0.0 1.0 0.00 0.00 0.00 68 1018.2
20260504040710 64 0 0.0 2.0 0.00 0.00 0.00 67 1018.1
20260504040212 64 0 0.0 2.0 0.00 0.00 0.00 67 1018.0
20260504035704 64 0 0.0 2.0 0.00 0.00 0.00 67 1017.9
20260504035203 65 0 0.0 1.0 0.00 0.00 0.00 66 1018.0
20260504034703 65 0 0.0 1.0 0.00 0.00 0.00 66 1018.0
20260504034204 65 0 0.0 1.0 0.00 0.00 0.00 66 1018.2
20260504033703 65 0 0.0 1.0 0.00 0.00 0.00 65 1018.3
20260504033159 65 0 0.0 1.0 0.00 0.00 0.00 64 1018.2
20260504032658 66 0 0.0 1.0 0.00 0.00 0.00 64 1018.2
20260504032154 66 0 0.0 3.0 0.00 0.00 0.00 63 1018.1
20260504031654 66 0 0.0 3.0 0.00 0.00 0.00 63 1018.0
20260504031153 67 0 0.0 3.0 0.00 0.00 0.00 63 1018.0
20260504030650 67 0 1.0 2.0 0.00 0.00 0.00 62 1018.1
20260504030412 67 0 1.0 3.0 0.00 0.00 0.00 62 1018.1
20260504025912 67 0 1.0 3.0 0.00 0.00 0.00 62 1018.0
20260504025142 67 0 1.0 5.0 0.00 0.00 0.00 61 1018.0
20260504024635 67 0 1.0 5.0 0.00 0.00 0.00 61 1018.0
20260504024349 68 0 1.0 4.0 0.00 0.00 0.00 60 1018.0
20260504023620 68 0 1.0 4.0 0.00 0.00 0.00 60 1018.0
20260504023113 68 0 1.0 5.0 0.00 0.00 0.00 60 1017.9
20260504022603 68 0 1.0 5.0 0.00 0.00 0.00 59 1017.9
20260504022059 68 0 1.0 3.0 0.00 0.00 0.00 59 1017.8
20260504021551 68 0 0.0 3.0 0.00 0.00 0.00 58 1017.8
20260504021042 69 0 0.0 3.0 0.00 0.00 0.00 57 1017.7
20260504020535 69 0 0.0 3.0 0.00 0.00 0.00 57 1017.7
20260504020028 69 0 0.0 2.0 0.00 0.00 0.00 56 1017.7
20260504015519 69 0 0.0 3.0 0.00 0.00 0.00 55 1017.6
20260504015234 70 0 0.0 2.0 0.00 0.00 0.00 55 1017.7
20260504014508 70 0 1.0 4.0 0.00 0.00 0.00 54 1017.7
20260504013959 70 0 1.0 4.0 0.00 0.00 0.00 54 1017.7
20260504013451 70 0 1.0 6.0 0.00 0.00 0.00 53 1017.7
20260504012945 71 0 2.0 6.0 0.00 0.00 0.00 53 1017.7
20260504012435 71 0 1.0 5.0 0.00 0.00 0.00 52 1017.7
20260504011930 71 0 2.0 5.0 0.00 0.00 0.00 52 1017.7
20260504011423 72 196 1.0 4.0 0.00 0.00 0.00 51 1017.6
20260504010914 72 188 1.0 6.0 0.00 0.00 0.00 51 1017.6
20260504010631 72 187 1.0 6.0 0.00 0.00 0.00 49 1017.5
20260504005901 73 185 1.0 5.0 0.00 0.00 0.00 49 1017.5
20260504005351 73 186 1.0 6.0 0.00 0.00 0.00 49 1017.4
20260504004845 73 178 1.0 6.0 0.00 0.00 0.00 48 1017.6
20260504004340 73 186 1.0 4.0 0.00 0.00 0.00 48 1017.6
20260504003830 74 178 2.0 5.0 0.00 0.00 0.00 47 1017.6
20260504003323 74 181 2.0 6.0 0.00 0.00 0.00 47 1017.4
20260504002817 74 182 2.0 8.0 0.00 0.00 0.00 46 1017.6
20260504002308 75 210 3.0 8.0 0.00 0.00 0.00 46 1017.5
20260504002029 75 168 2.0 7.0 0.00 0.00 0.00 45 1017.5
20260504001304 76 166 2.0 7.0 0.00 0.00 0.00 45 1017.4
20260504000803 76 186 2.0 7.0 0.00 0.00 0.00 44 1017.4
20260504000523 77 174 2.0 8.0 0.00 0.00 0.00 44 1017.5
20260503235800 77 194 2.0 8.0 0.00 0.00 0.00 43 1017.5
20260503235528 78 191 3.0 8.0 0.00 0.00 0.00 43 1017.5
20260503234800 78 207 3.0 8.0 0.00 0.00 0.00 41 1017.6
20260503234302 79 167 3.0 8.0 0.00 0.00 0.00 41 1017.5
20260503233800 79 182 3.0 10.0 0.00 0.00 0.00 41 1017.5
20260503233301 80 159 2.0 10.0 0.00 0.00 0.00 40 1017.7
20260503232759 80 182 2.0 7.0 0.00 0.00 0.00 40 1017.8
20260503232259 80 174 2.0 7.0 0.00 0.00 0.00 40 1017.8
20260503231758 80 180 2.0 7.0 0.00 0.00 0.00 39 1017.8
20260503231259 80 188 2.0 7.0 0.00 0.00 0.00 39 1017.7
20260503231020 80 180 2.0 7.0 0.00 0.00 0.00 39 1017.8
20260503230514 80 200 3.0 7.0 0.00 0.00 0.00 40 1017.8
20260503225747 80 161 2.0 7.0 0.00 0.00 0.00 39 1017.7
20260503225237 81 180 2.0 7.0 0.00 0.00 0.00 40 1017.8
20260503224731 81 163 2.0 9.0 0.00 0.00 0.00 40 1017.9
20260503224713 81 169 3.0 9.0 0.00 0.00 0.00 39 1018.0
20260503223716 81 178 3.0 7.0 0.00 0.00 0.00 38 1018.0
20260503223210 81 207 2.0 7.0 0.00 0.00 0.00 40 1018.0
20260503222703 81 214 3.0 7.0 0.00 0.00 0.00 39 1018.2
20260503222155 81 228 3.0 8.0 0.00 0.00 0.00 38 1018.2
20260503221912 81 229 3.0 8.0 0.00 0.00 0.00 38 1018.3
20260503221155 82 185 3.0 13.0 0.00 0.00 0.00 38 1018.4
20260503220654 82 174 3.0 13.0 0.00 0.00 0.00 37 1018.3
20260503220154 82 194 1.0 7.0 0.00 0.00 0.00 39 1018.3
20260503215653 82 178 0.0 3.0 0.00 0.00 0.00 37 1018.2
20260503215153 81 182 0.0 5.0 0.00 0.00 0.00 33 1018.2
20260503214654 82 182 1.0 5.0 0.00 0.00 0.00 34 1018.3
20260503214417 82 152 1.0 5.0 0.00 0.00 0.00 32 1018.4
20260503213651 83 212 1.0 5.0 0.00 0.00 0.00 35 1018.6
20260503213153 82 178 2.0 7.0 0.00 0.00 0.00 35 1018.7
20260503212650 82 175 2.0 7.0 0.00 0.00 0.00 32 1018.7
20260503212149 82 196 2.0 7.0 0.00 0.00 0.00 35 1018.8
20260503211648 82 184 1.0 6.0 0.00 0.00 0.00 33 1018.9
20260503211148 82 191 1.0 6.0 0.00 0.00 0.00 31 1018.9
20260503210644 82 194 1.0 7.0 0.00 0.00 0.00 33 1018.9
20260503210144 82 186 1.0 7.0 0.00 0.00 0.00 33 1019.1
20260503205645 82 140 1.0 3.0 0.00 0.00 0.00 31 1019.1
20260503205146 82 197 2.0 8.0 0.00 0.00 0.00 32 1019.1
20260503204641 82 196 3.0 8.0 0.00 0.00 0.00 31 1019.2
20260503204140 82 184 3.0 8.0 0.00 0.00 0.00 30 1019.3
20260503203641 82 208 1.0 7.0 0.00 0.00 0.00 32 1019.3
20260503203141 82 58 1.0 4.0 0.00 0.00 0.00 31 1019.3
20260503202638 82 32 1.0 3.0 0.00 0.00 0.00 34 1019.5
20260503202357 83 175 1.0 5.0 0.00 0.00 0.00 33 1019.7
20260503202236 82 155 1.0 4.0 0.00 0.00 0.00 30 1019.7
20260503201136 82 173 1.0 5.0 0.00 0.00 0.00 33 1019.8
20260503200858 82 186 1.0 6.0 0.00 0.00 0.00 31 1019.9
20260503200139 82 192 1.0 6.0 0.00 0.00 0.00 33 1020.0
20260503195635 82 189 1.0 5.0 0.00 0.00 0.00 32 1020.0
20260503195132 81 124 1.0 5.0 0.00 0.00 0.00 30 1020.0
20260503194858 81 111 1.0 5.0 0.00 0.00 0.00 32 1020.1
20260503194132 81 171 2.0 8.0 0.00 0.00 0.00 31 1020.1
20260503193632 81 167 2.0 8.0 0.00 0.00 0.00 36 1020.2
20260503193400 81 65 2.0 8.0 0.00 0.00 0.00 33 1020.2
20260503192633 81 181 2.0 8.0 0.00 0.00 0.00 33 1020.4
20260503192131 81 169 2.0 7.0 0.00 0.00 0.00 32 1020.4
20260503191628 80 180 2.0 7.0 0.00 0.00 0.00 32 1020.6
20260503191353 80 135 1.0 4.0 0.00 0.00 0.00 35 1020.7
20260503190629 80 86 2.0 9.0 0.00 0.00 0.00 34 1020.7
20260503190128 81 65 2.0 9.0 0.00 0.00 0.00 34 1020.7
20260503185628 81 143 2.0 8.0 0.00 0.00 0.00 36 1020.9
20260503185129 81 217 3.0 8.0 0.00 0.00 0.00 35 1020.9
20260503184901 80 221 3.0 8.0 0.00 0.00 0.00 34 1021.0
20260503184127 80 206 2.0 8.0 0.00 0.00 0.00 32 1021.1
20260503183628 80 205 2.0 6.0 0.00 0.00 0.00 34 1021.2
20260503183129 81 74 2.0 5.0 0.00 0.00 0.00 35 1021.2
20260503182630 82 78 2.0 7.0 0.00 0.00 0.00 35 1021.2
20260503182128 82 232 2.0 7.0 0.00 0.00 0.00 35 1021.3
20260503181629 81 193 1.0 4.0 0.00 0.00 0.00 38 1021.3
20260503181128 80 171 1.0 3.0 0.00 0.00 0.00 38 1021.4
20260503180629 80 77 1.0 4.0 0.00 0.00 0.00 37 1021.5
20260503180130 80 78 1.0 4.0 0.00 0.00 0.00 36 1021.6
20260503175628 80 206 2.0 6.0 0.00 0.00 0.00 37 1021.6
20260503175125 79 222 2.0 6.0 0.00 0.00 0.00 40 1021.8
20260503174625 79 207 1.0 6.0 0.00 0.00 0.00 37 1022.0